VIASAT-2

Last updated on Thu Oct 10 2024 00:02:41 GMT+0000 (Coordinated Universal Time)

1 42740U 17029A 24282.53028897 -.00000255 00000+0 00000+0 0 9997 2 42740 0.0135 241.9661 0000200 207.8461 48.8664 1.00270703 27013
UTC large
Height (km)
Speed (km/s)
/
Latitude / Longitude
Inclination (degrees)
Orbital Period (minutes)
Azimuth
Elevation
Range (km)
Doppler Factor

Next 0 passes for location: London (51.5072 / 0.1276)

Sorry there are no passes over London.